period_start,C,m1,H,J0,J1,J2,J3,J4,J5,JA,JB,JC,JD,JJ,JK,JN,#
2015-01-29 00:01:28,0.37,1.81,0.00,20.50,25.99,29.20,4.85,27.16,1013.23,2035.00,2732.63,2824.94,3056.40,350.26,349.69,10.85,0000 0000 0000 0000 000000
2015-01-29 00:06:29,0.34,1.82,0.00,20.53,26.00,29.18,4.81,26.87,1013.20,2035.00,2728.89,2822.28,3053.57,349.48,349.07,10.87,0000 0000 0000 0000 000000
2015-01-29 00:11:31,0.26,1.83,0.00,20.54,26.01,29.16,4.80,26.91,1013.21,2035.00,2726.06,2820.29,3051.39,350.13,349.48,10.90,0000 0000 0000 0000 000000
2015-01-29 00:16:32,0.23,1.84,0.00,20.53,26.02,29.14,4.89,26.94,1013.21,2035.00,2723.61,2818.52,3049.44,350.24,349.51,10.93,0000 0000 0000 0000 000000
2015-01-29 00:21:34,0.25,1.84,0.00,20.57,26.04,29.20,4.84,26.98,1013.21,2035.00,2721.26,2816.76,3047.55,349.81,349.21,10.96,0000 0000 0000 0000 000000
2015-01-29 00:26:35,0.20,1.85,0.00,20.59,26.05,29.21,4.83,26.94,1013.22,2034.99,2718.98,2815.22,3045.72,349.99,349.31,10.99,0000 0000 0000 0000 000000
2015-01-29 00:31:36,0.23,1.86,0.00,20.60,26.06,29.21,4.76,26.79,1013.21,2034.97,2716.72,2813.63,3043.91,349.82,349.25,11.02,0000 0000 0000 0000 000000
2015-01-29 00:36:37,0.20,1.86,0.00,20.61,26.07,29.25,4.88,27.00,1013.20,2034.96,2714.53,2812.02,3042.27,349.95,348.99,11.05,0000 0000 0000 0000 000000
2015-01-29 00:41:39,0.24,1.87,0.00,20.59,26.08,29.30,4.82,27.02,1013.19,2034.94,2712.19,2810.35,3040.47,350.12,349.48,11.08,0000 0000 0000 0000 000000
2015-01-29 00:46:40,0.22,1.88,0.00,20.61,26.10,29.30,4.85,26.97,1013.14,2034.92,2709.95,2808.73,3038.64,350.52,349.78,11.11,0000 0000 0000 0000 000000
2015-01-29 00:51:41,0.18,1.88,0.00,20.64,26.11,29.35,4.79,27.02,1013.17,2034.80,2707.69,2807.14,3036.85,349.82,349.02,11.14,0000 0000 0000 0000 000000
2015-01-29 00:56:42,0.18,1.89,0.00,20.67,26.12,29.31,4.77,26.80,1013.17,2034.49,2705.38,2805.41,3035.03,349.74,349.21,11.17,0000 0000 0000 0000 000000
2015-01-29 01:01:44,0.21,1.89,0.00,20.65,26.13,29.33,4.82,26.85,1013.16,2034.20,2703.03,2803.62,3033.03,349.87,349.15,11.20,0000 0000 0000 0000 000000
2015-01-29 01:06:45,0.23,1.90,0.00,20.65,26.15,29.37,4.90,27.02,1013.16,2034.06,2700.46,2801.81,3031.09,350.43,349.65,11.23,0000 0000 0000 0000 000000
2015-01-29 01:11:46,0.24,1.91,0.00,20.67,26.15,29.36,4.81,26.84,1013.12,2034.07,2697.99,2800.06,3029.23,350.11,349.42,11.26,0000 0000 0000 0000 000000
2015-01-29 01:16:48,0.22,1.91,0.00,20.69,26.17,29.37,4.76,26.91,1013.12,2034.04,2695.52,2798.35,3027.42,349.73,349.04,11.28,0000 0000 0000 0000 000000
2015-01-29 01:21:49,0.22,1.92,0.00,20.69,26.17,29.43,4.82,26.82,1013.00,2034.03,2693.31,2796.68,3025.71,349.70,348.88,11.31,0000 0000 0000 0000 000000
2015-01-29 01:26:50,0.18,1.93,0.00,20.72,26.19,29.38,4.92,26.80,1012.83,2034.01,2691.31,2795.29,3024.15,350.67,349.51,11.34,0000 0000 0000 0000 000000
2015-01-29 01:31:51,0.21,1.93,0.00,20.73,26.20,29.40,4.84,26.96,1012.72,2034.00,2689.30,2793.77,3022.52,350.15,349.07,11.37,0000 0000 0000 0000 000000
2015-01-29 01:36:52,0.20,1.94,0.00,20.72,26.21,29.44,4.81,26.92,1012.71,2034.00,2687.26,2792.30,3020.81,350.10,349.01,11.40,0000 0000 0000 0000 000000
2015-01-29 01:41:54,0.21,1.94,0.00,20.72,26.22,29.42,4.81,26.96,1012.71,2034.00,2685.20,2790.71,3019.21,350.18,349.22,11.43,0000 0000 0000 0000 000000
2015-01-29 01:46:55,0.19,1.95,0.00,20.72,26.23,29.39,4.83,26.93,1012.71,2034.00,2683.23,2789.32,3017.65,349.59,348.65,11.46,0000 0000 0000 0000 000000
2015-01-29 01:51:56,0.22,1.96,0.00,20.75,26.25,29.45,4.88,27.04,1012.71,2034.00,2681.13,2787.78,3015.94,349.99,348.77,11.49,0000 0000 0000 0000 000000
2015-01-29 01:56:57,0.21,1.96,0.00,20.81,26.25,29.46,4.91,26.99,1012.71,2034.00,2679.03,2786.17,3014.16,349.94,348.94,11.52,0000 0000 0000 0000 000000
2015-01-29 02:01:59,0.26,1.97,0.00,20.77,26.27,29.54,4.84,26.92,1012.73,2034.00,2676.63,2784.43,3012.10,349.85,348.85,11.55,0000 0000 0000 0000 000000
2015-01-29 02:07:00,0.31,1.98,0.00,20.79,26.27,29.53,4.86,26.86,1012.71,2033.98,2673.66,2782.25,3009.80,350.58,349.36,11.58,0000 0000 0000 0000 000000
2015-01-29 02:12:01,0.27,1.99,0.00,20.83,26.30,29.50,4.83,26.87,1012.71,2033.96,2670.80,2780.20,3007.75,350.07,349.07,11.61,0000 0000 0000 0000 000000
2015-01-29 02:17:02,0.27,1.99,0.00,20.83,26.30,29.49,4.83,26.74,1012.71,2033.96,2668.15,2778.32,3005.82,350.19,349.01,11.64,0000 0000 0000 0000 000000
2015-01-29 02:22:04,0.27,2.00,0.00,20.82,26.32,29.49,4.82,26.82,1012.71,2033.91,2665.32,2776.30,3003.69,349.94,348.85,11.67,0000 0000 0000 0000 000000
2015-01-29 02:27:05,0.25,2.01,0.00,20.81,26.32,29.51,4.88,26.94,1012.71,2033.84,2662.67,2774.39,3001.62,350.08,349.10,11.69,0000 0000 0000 0000 000000
2015-01-29 02:32:06,0.25,2.02,0.00,20.77,26.33,29.50,4.86,26.89,1012.72,2033.69,2660.00,2772.50,2999.61,349.87,348.73,11.72,0000 0000 0000 0000 000000
2015-01-29 02:37:07,0.18,2.03,0.00,20.78,26.35,29.54,4.83,27.03,1012.71,2033.38,2657.35,2770.57,2997.58,350.13,349.00,11.75,0000 0000 0000 0000 000000
2015-01-29 02:42:09,0.22,2.03,0.00,20.81,26.35,29.53,4.86,27.00,1012.71,2033.20,2655.07,2768.91,2995.77,349.84,348.77,11.78,0000 0000 0000 0000 000000
2015-01-29 02:47:10,0.20,2.04,0.00,20.82,26.37,29.51,4.81,26.86,1012.71,2033.12,2652.93,2767.40,2994.11,350.25,349.10,11.81,0000 0000 0000 0000 000000
2015-01-29 02:52:12,0.22,2.04,0.00,20.84,26.37,29.59,4.81,26.90,1012.71,2033.06,2650.71,2765.71,2992.37,349.61,348.54,11.84,0000 0000 0000 0000 000000
2015-01-29 02:57:13,0.22,2.05,0.00,20.83,26.38,29.53,4.87,26.97,1012.71,2033.04,2648.47,2764.15,2990.61,350.14,349.04,11.87,0000 0000 0000 0000 000000
2015-01-29 03:02:14,0.22,2.06,0.00,20.83,26.40,29.48,4.77,26.86,1012.71,2033.03,2646.40,2762.57,2988.76,349.90,349.01,11.90,0000 0000 0000 0000 000000
2015-01-29 03:07:16,0.24,2.06,0.00,20.83,26.40,29.55,4.90,26.88,1012.71,2033.01,2644.08,2760.88,2986.98,350.24,349.09,11.93,0000 0000 0000 0000 000000
2015-01-29 03:12:17,0.22,2.07,0.00,20.86,26.41,29.54,4.87,26.82,1012.68,2033.01,2641.87,2759.29,2985.24,350.01,348.78,11.96,0000 0000 0000 0000 000000
2015-01-29 03:17:17,0.31,2.08,0.00,20.87,26.42,29.55,4.83,26.82,1012.53,2033.00,2639.12,2757.23,2982.98,350.15,348.99,11.99,0000 0000 0000 0000 000000
2015-01-29 03:22:19,0.30,2.09,0.00,20.90,26.42,29.57,4.84,26.96,1012.36,2033.00,2635.93,2755.06,2980.66,349.80,348.51,12.02,0000 0000 0000 0000 000000
2015-01-29 03:27:20,0.30,2.10,0.00,20.92,26.44,29.55,4.88,26.95,1012.26,2033.00,2633.04,2752.90,2978.40,350.40,349.42,12.05,0000 0000 0000 0000 000000
2015-01-29 03:32:21,0.25,2.11,0.00,20.89,26.45,29.61,4.94,26.89,1012.23,2033.00,2630.38,2751.18,2976.32,350.77,349.38,12.08,0000 0000 0000 0000 000000
2015-01-29 03:37:23,0.25,2.11,0.00,20.91,26.45,29.63,4.83,26.93,1012.22,2033.00,2627.87,2749.44,2974.32,349.84,348.37,12.10,0000 0000 0000 0000 000000
2015-01-29 03:42:24,0.25,2.12,0.00,20.95,26.46,29.60,4.80,27.07,1012.22,2032.98,2625.38,2747.63,2972.44,350.16,348.75,12.13,0000 0000 0000 0000 000000
2015-01-29 03:47:25,0.21,2.13,0.00,20.93,26.47,29.64,4.83,26.91,1012.21,2032.98,2623.37,2746.09,2970.64,350.06,348.49,12.16,0000 0000 0000 0000 000000
2015-01-29 03:52:26,0.21,2.13,0.00,20.95,26.47,29.60,4.82,26.92,1012.22,2032.98,2621.46,2744.63,2969.11,349.47,348.22,12.19,0000 0000 0000 0000 000000
2015-01-29 03:57:27,0.20,2.14,0.00,20.94,26.48,29.63,4.86,26.84,1012.22,2032.98,2619.27,2743.15,2967.55,350.34,349.03,12.22,0000 0000 0000 0000 000000
2015-01-29 04:02:28,0.23,2.15,0.00,20.95,26.50,29.57,4.77,26.86,1012.17,2032.97,2617.14,2741.62,2965.90,349.59,348.24,12.25,0000 0000 0000 0000 000000
2015-01-29 04:07:30,0.21,2.15,0.00,20.97,26.50,29.60,4.88,26.87,1012.12,2032.97,2615.03,2740.12,2964.34,350.17,348.68,12.28,0000 0000 0000 0000 000000
2015-01-29 04:12:31,0.23,2.16,0.00,20.93,26.50,29.66,4.87,26.87,1012.15,2032.96,2612.78,2738.55,2962.69,350.28,348.81,12.31,0000 0000 0000 0000 000000
2015-01-29 04:17:32,0.21,2.17,0.00,20.95,26.50,29.66,4.92,26.89,1012.18,2032.94,2610.81,2736.99,2960.95,350.38,348.86,12.34,0000 0000 0000 0000 000000
2015-01-29 04:22:34,0.21,2.17,0.00,20.92,26.52,29.66,4.78,26.93,1012.18,2032.92,2608.79,2735.52,2959.23,349.39,347.91,12.37,0000 0000 0000 0000 000000
2015-01-29 04:27:35,0.17,2.18,0.00,20.93,26.52,29.68,4.88,26.80,1012.14,2032.71,2606.69,2733.93,2957.57,349.85,348.32,12.40,0000 0000 0000 0000 000000
2015-01-29 04:32:36,0.16,2.18,0.00,20.93,26.52,29.66,4.78,27.07,1011.95,2032.41,2604.43,2732.39,2955.97,349.22,347.91,12.43,0000 0000 0000 0000 000000
2015-01-29 04:37:38,0.23,2.19,0.00,20.94,26.53,29.62,4.81,26.99,1012.13,2032.30,2602.13,2730.75,2954.30,349.77,348.33,12.46,0000 0000 0000 0000 000000
2015-01-29 04:42:39,0.22,2.19,0.00,20.96,26.54,29.63,4.86,26.96,1012.22,2032.14,2599.65,2729.08,2952.46,350.22,348.83,12.49,0000 0000 0000 0000 000000
2015-01-29 04:47:40,0.26,2.20,0.00,20.97,26.55,29.71,4.87,27.06,1012.19,2032.17,2597.61,2727.44,2950.60,349.98,348.47,12.51,0000 0000 0000 0000 000000
2015-01-29 04:52:42,0.17,2.21,0.00,20.95,26.55,29.70,4.79,26.75,1012.22,2032.15,2595.77,2725.96,2948.90,350.27,348.72,12.54,0000 0000 0000 0000 000000
2015-01-29 04:57:43,0.20,2.21,0.00,20.96,26.57,29.64,4.76,26.75,1012.21,2032.07,2593.77,2724.55,2947.46,349.77,348.24,12.57,0000 0000 0000 0000 000000
2015-01-29 05:02:44,0.19,2.22,0.00,20.99,26.57,29.71,4.87,26.91,1012.21,2032.07,2591.87,2723.22,2945.94,349.96,348.31,12.60,0000 0000 0000 0000 000000
2015-01-29 05:07:45,0.21,2.23,0.00,21.02,26.57,29.70,4.80,26.81,1012.20,2032.02,2589.82,2721.77,2944.54,349.68,347.95,12.63,0000 0000 0000 0000 000000
2015-01-29 05:12:47,0.19,2.23,0.00,20.99,26.57,29.65,4.81,26.88,1012.12,2032.02,2587.94,2720.38,2943.01,350.13,348.60,12.66,0000 0000 0000 0000 000000
2015-01-29 05:17:48,0.17,2.24,0.00,21.00,26.57,29.66,4.78,26.68,1012.07,2032.00,2586.17,2719.01,2941.63,350.24,348.70,12.69,0000 0000 0000 0000 000000
2015-01-29 05:22:49,0.19,2.24,0.00,21.01,26.58,29.74,4.79,26.86,1011.92,2032.00,2584.54,2717.75,2940.32,350.42,348.83,12.72,0000 0000 0000 0000 000000
2015-01-29 05:27:50,0.18,2.25,0.00,21.02,26.59,29.79,4.86,26.80,1011.97,2032.00,2582.84,2716.53,2938.94,350.22,348.36,12.75,0000 0000 0000 0000 000000
2015-01-29 05:32:52,0.16,2.25,0.00,20.99,26.60,29.74,4.81,26.82,1011.81,2032.00,2581.31,2715.41,2937.64,349.75,348.00,12.78,0000 0000 0000 0000 000000
2015-01-29 05:37:53,0.16,2.26,0.00,21.02,26.60,29.75,4.89,27.11,1011.78,2032.00,2579.66,2714.27,2936.46,350.32,348.63,12.81,0000 0000 0000 0000 000000
2015-01-29 05:42:54,0.16,2.26,0.00,21.00,26.60,29.74,4.79,26.98,1011.79,2032.00,2577.99,2713.05,2935.26,349.73,348.11,12.84,0000 0000 0000 0000 000000
2015-01-29 05:47:55,0.16,2.27,0.00,21.00,26.60,29.73,4.80,26.85,1011.75,2032.00,2576.50,2711.92,2934.03,349.93,348.23,12.87,0000 0000 0000 0000 000000
2015-01-29 05:52:57,0.19,2.27,0.00,20.98,26.60,29.76,4.90,26.88,1011.74,2032.00,2574.83,2710.75,2932.75,350.66,349.10,12.89,0000 0000 0000 0000 000000
2015-01-29 05:57:58,0.16,2.28,0.00,20.98,26.62,29.71,4.82,26.95,1011.75,2032.00,2573.39,2709.57,2931.48,349.52,347.83,12.92,0000 0000 0000 0000 000000
2015-01-29 06:03:00,0.17,2.28,0.00,20.97,26.62,29.72,4.82,26.94,1011.73,2032.00,2571.67,2708.37,2930.19,350.01,348.39,12.95,0000 0000 0000 0000 000000
2015-01-29 06:08:01,0.17,2.29,0.00,20.98,26.62,29.72,4.77,26.79,1011.73,2032.00,2569.81,2707.08,2928.95,349.85,348.10,12.98,0000 0000 0000 0000 000000
2015-01-29 06:13:03,0.16,2.29,0.00,20.99,26.62,29.68,4.85,27.02,1011.73,2032.00,2568.13,2705.91,2927.81,350.03,348.37,13.01,0000 0000 0000 0000 000000
2015-01-29 06:18:04,0.18,2.30,0.00,20.98,26.63,29.73,4.79,27.05,1011.73,2032.00,2566.58,2704.73,2926.49,349.79,348.06,13.04,0000 0000 0000 0000 000000
2015-01-29 06:23:05,0.17,2.30,0.00,20.96,26.64,29.70,4.78,26.86,1011.73,2032.00,2564.87,2703.55,2925.28,349.66,348.29,13.07,0000 0000 0000 0000 000000
2015-01-29 06:28:06,0.16,2.31,0.00,20.95,26.65,29.72,4.82,27.13,1011.73,2032.00,2563.43,2702.41,2924.01,349.96,348.50,13.10,0000 0000 0000 0000 000000
2015-01-29 06:33:08,0.17,2.31,0.00,20.97,26.65,29.69,4.83,27.06,1011.74,2032.00,2561.86,2701.18,2922.65,350.48,348.88,13.13,0000 0000 0000 0000 000000
2015-01-29 06:38:09,0.18,2.32,0.00,20.97,26.65,29.69,4.83,27.18,1011.75,2032.00,2560.34,2699.96,2921.20,349.75,348.15,13.16,0000 0000 0000 0000 000000
2015-01-29 06:43:11,0.18,2.32,0.00,20.98,26.65,29.72,4.72,26.99,1011.75,2032.00,2558.67,2698.67,2919.95,349.15,347.46,13.19,0000 0000 0000 0000 000000
2015-01-29 06:48:12,0.16,2.33,0.00,20.96,26.65,29.76,4.83,27.12,1011.75,2032.00,2557.11,2697.57,2918.82,349.80,348.22,13.22,0000 0000 0000 0000 000000
2015-01-29 06:53:13,0.17,2.34,0.00,20.98,26.66,29.69,4.74,27.01,1011.73,2032.00,2555.53,2696.41,2917.55,349.73,348.19,13.25,0000 0000 0000 0000 000000
2015-01-29 06:58:15,0.15,2.34,0.00,21.01,26.67,29.65,4.79,27.21,1011.73,2032.00,2553.96,2695.22,2916.37,349.24,347.71,13.28,0000 0000 0000 0000 000000
2015-01-29 07:03:16,0.17,2.35,0.00,21.02,26.67,29.65,4.88,27.32,1011.73,2032.00,2552.43,2693.99,2915.00,350.24,348.77,13.30,0000 0000 0000 0000 000000
2015-01-29 07:08:17,0.16,2.35,0.00,21.00,26.67,29.72,4.77,27.16,1011.73,2032.00,2551.04,2692.83,2913.66,349.67,347.95,13.33,0000 0000 0000 0000 000000
2015-01-29 07:13:18,0.19,2.35,0.00,21.01,26.67,29.68,4.84,27.13,1011.74,2031.99,2549.65,2691.63,2912.28,350.01,348.45,13.36,0000 0000 0000 0000 000000
2015-01-29 07:18:19,0.17,2.36,0.00,21.00,26.68,29.69,4.75,27.17,1011.74,2031.99,2548.13,2690.47,2910.84,349.15,347.53,13.39,0000 0000 0000 0000 000000
2015-01-29 07:23:21,0.16,2.37,0.00,21.03,26.68,29.70,4.83,27.16,1011.74,2031.99,2546.52,2689.38,2909.74,349.90,348.16,13.42,0000 0000 0000 0000 000000
2015-01-29 07:28:22,0.18,2.37,0.00,21.01,26.69,29.66,4.77,27.03,1011.73,2031.99,2544.76,2688.18,2908.57,349.79,348.21,13.45,0000 0000 0000 0000 000000
2015-01-29 07:33:23,0.17,2.38,0.00,21.00,26.70,29.75,4.88,27.32,1011.73,2031.99,2542.99,2686.93,2907.27,350.22,348.53,13.48,0000 0000 0000 0000 000000
2015-01-29 07:38:25,0.19,2.38,0.00,20.97,26.70,29.75,4.79,27.18,1011.71,2031.98,2541.38,2685.71,2905.83,349.82,348.11,13.51,0000 0000 0000 0000 000000
2015-01-29 07:43:26,0.19,2.39,0.00,20.98,26.70,29.75,4.82,27.23,1011.56,2031.99,2539.67,2684.49,2904.57,350.10,348.56,13.54,0000 0000 0000 0000 000000
2015-01-29 07:48:27,0.16,2.39,0.00,20.98,26.70,29.72,4.92,27.22,1011.48,2031.99,2538.02,2683.34,2903.34,350.61,349.17,13.57,0000 0000 0000 0000 000000
2015-01-29 07:53:29,0.17,2.40,0.00,20.99,26.70,29.68,4.83,27.32,1011.60,2031.98,2536.43,2682.07,2901.93,350.14,348.47,13.60,0000 0000 0000 0000 000000
2015-01-29 07:58:30,0.19,2.40,0.00,20.99,26.70,29.72,4.91,27.33,1011.67,2031.97,2534.78,2680.81,2900.64,350.47,348.86,13.63,0000 0000 0000 0000 000000
2015-01-29 08:03:32,0.17,2.41,0.00,21.02,26.71,29.71,4.83,27.23,1011.59,2031.97,2533.24,2679.60,2899.29,350.29,348.73,13.66,0000 0000 0000 0000 000000
2015-01-29 08:08:33,0.18,2.41,0.00,21.04,26.72,29.74,4.76,27.24,1011.31,2031.97,2531.59,2678.42,2897.97,350.09,348.50,13.69,0000 0000 0000 0000 000000
2015-01-29 08:13:34,0.18,2.42,0.00,21.03,26.72,29.78,4.88,27.23,1011.33,2031.97,2529.89,2677.16,2896.67,350.17,348.28,13.72,0000 0000 0000 0000 000000
2015-01-29 08:18:36,0.17,2.42,0.00,21.04,26.72,29.72,4.82,27.11,1011.55,2031.98,2528.30,2675.92,2895.40,349.74,347.90,13.74,0000 0000 0000 0000 000000
2015-01-29 08:23:37,0.19,2.43,0.00,21.04,26.72,29.75,4.86,27.25,1011.59,2031.98,2526.75,2674.70,2894.01,350.17,348.58,13.77,0000 0000 0000 0000 000000
2015-01-29 08:28:38,0.20,2.43,0.00,21.05,26.74,29.75,4.83,27.23,1011.54,2031.96,2525.00,2673.43,2892.54,349.82,348.06,13.80,0000 0000 0000 0000 000000
2015-01-29 08:33:40,0.15,2.44,0.00,21.08,26.75,29.80,4.78,27.26,1011.55,2031.94,2523.27,2672.13,2891.14,349.47,347.69,13.83,0000 0000 0000 0000 000000
2015-01-29 08:38:41,0.21,2.45,0.00,21.10,26.75,29.80,4.88,27.40,1011.50,2031.86,2521.43,2670.76,2889.72,350.13,348.35,13.86,0000 0000 0000 0000 000000
2015-01-29 08:43:43,0.19,2.45,0.00,21.12,26.75,29.74,4.78,27.43,1011.43,2031.81,2519.60,2669.39,2888.28,350.08,347.91,13.89,0000 0000 0000 0000 000000
2015-01-29 08:48:44,0.19,2.46,0.00,21.13,26.76,29.85,4.87,27.37,1011.39,2031.85,2517.80,2668.15,2886.89,349.80,347.90,13.92,0000 0000 0000 0000 000000
2015-01-29 08:53:45,0.20,2.46,0.00,21.15,26.77,29.87,4.89,27.17,1011.30,2031.89,2516.13,2666.87,2885.54,350.41,348.40,13.95,0000 0000 0000 0000 000000
2015-01-29 08:58:46,0.16,2.47,0.00,21.16,26.77,29.87,4.78,27.14,1011.28,2031.88,2514.43,2665.63,2884.20,349.98,348.44,13.98,0000 0000 0000 0000 000000
2015-01-29 09:03:47,0.20,2.47,0.00,21.16,26.78,29.87,4.87,27.16,1011.26,2031.82,2512.73,2664.37,2882.80,349.64,347.75,14.01,0000 0000 0000 0000 000000
2015-01-29 09:08:48,0.14,2.48,0.00,21.14,26.80,29.88,4.88,27.19,1011.25,2031.57,2510.97,2662.96,2881.38,350.71,348.47,14.04,0000 0000 0000 0000 000000
2015-01-29 09:13:49,0.21,2.48,0.00,21.15,26.80,29.87,4.86,27.32,1011.25,2031.58,2509.36,2661.71,2879.96,349.95,347.97,14.07,0000 0000 0000 0000 000000
2015-01-29 09:18:50,0.16,2.49,0.00,21.19,26.80,29.86,4.92,27.43,1011.25,2031.50,2507.69,2660.51,2878.72,350.67,348.70,14.10,0000 0000 0000 0000 000000
2015-01-29 09:23:52,0.15,2.49,0.00,21.19,26.82,29.84,4.76,27.22,1011.25,2031.33,2505.92,2659.19,2877.42,349.61,347.61,14.12,0000 0000 0000 0000 000000
2015-01-29 09:28:53,0.17,2.50,0.00,21.22,26.82,29.95,4.85,27.26,1011.25,2031.18,2504.17,2657.87,2875.99,350.17,347.95,14.15,0000 0000 0000 0000 000000
2015-01-29 09:33:54,0.19,2.50,0.00,21.24,26.84,29.89,4.79,27.29,1011.25,2031.10,2502.51,2656.58,2874.64,349.47,347.54,14.18,0000 0000 0000 0000 000000
2015-01-29 09:38:56,0.17,2.51,0.00,21.23,26.85,29.96,4.88,27.35,1011.25,2031.05,2500.79,2655.34,2873.23,350.09,347.91,14.21,0000 0000 0000 0000 000000
2015-01-29 09:43:57,0.17,2.52,0.00,21.24,26.85,29.91,4.73,27.24,1011.24,2031.02,2499.05,2653.98,2871.86,350.08,347.74,14.24,0000 0000 0000 0000 000000
2015-01-29 09:48:58,0.21,2.52,0.00,21.27,26.87,29.96,4.78,27.17,1011.24,2031.03,2497.40,2652.70,2870.47,349.75,347.78,14.27,0000 0000 0000 0000 000000
2015-01-29 09:54:00,0.18,2.53,0.00,21.29,26.87,29.97,4.76,27.18,1011.24,2031.01,2495.75,2651.45,2869.00,349.53,347.37,14.30,0000 0000 0000 0000 000000
2015-01-29 09:59:01,0.18,2.53,0.00,21.24,26.89,29.99,4.79,27.28,1011.22,2031.01,2494.18,2650.10,2867.65,349.57,347.63,14.33,0000 0000 0000 0000 000000
2015-01-29 10:04:02,0.20,2.54,0.00,21.30,26.90,29.99,4.80,27.24,1011.12,2031.01,2492.44,2648.80,2866.20,350.24,347.92,14.36,0000 0000 0000 0000 000000
2015-01-29 10:09:04,0.21,2.54,0.00,21.33,26.91,29.97,4.87,27.36,1011.07,2031.01,2490.64,2647.49,2864.73,350.26,348.01,14.39,0000 0000 0000 0000 000000
2015-01-29 10:14:05,0.19,2.55,0.00,21.30,26.92,30.01,4.85,27.21,1011.05,2031.00,2488.85,2646.09,2863.35,350.37,348.01,14.42,0000 0000 0000 0000 000000
2015-01-29 10:19:06,0.20,2.56,0.00,21.34,26.93,30.04,4.89,27.21,1011.18,2031.00,2487.13,2644.71,2861.82,350.29,348.04,14.45,0000 0000 0000 0000 000000
2015-01-29 10:24:07,0.20,2.56,0.00,21.38,26.95,29.98,4.80,27.18,1011.08,2031.00,2485.28,2643.36,2860.34,350.01,347.67,14.48,0000 0000 0000 0000 000000
2015-01-29 10:29:08,0.22,2.57,0.00,21.40,26.95,30.04,4.85,27.10,1011.04,2031.00,2483.41,2641.93,2858.79,349.82,347.38,14.51,0000 0000 0000 0000 000000
2015-01-29 10:34:10,0.22,2.57,0.00,21.40,26.97,30.09,4.80,27.19,1011.05,2030.99,2481.50,2640.46,2857.19,350.22,347.87,14.53,0000 0000 0000 0000 000000
2015-01-29 10:39:11,0.24,2.58,0.00,21.42,26.97,30.06,4.77,27.20,1011.04,2030.99,2479.48,2638.89,2855.56,349.58,347.26,14.56,0000 0000 0000 0000 000000
2015-01-29 10:44:12,0.23,2.59,0.00,21.41,26.99,30.10,4.86,27.25,1010.78,2030.97,2477.30,2637.24,2853.76,350.13,347.80,14.59,0000 0000 0000 0000 000000
2015-01-29 10:49:13,0.24,2.60,0.00,21.46,27.00,30.17,4.80,27.11,1010.77,2030.97,2475.36,2635.68,2852.07,349.52,347.18,14.62,0000 0000 0000 0000 000000
2015-01-29 10:54:14,0.19,2.60,0.00,21.48,27.02,30.17,4.84,27.13,1010.76,2030.92,2473.43,2634.24,2850.42,349.86,347.40,14.65,0000 0000 0000 0000 000000
2015-01-29 10:59:15,0.24,2.61,0.00,21.47,27.02,30.16,4.84,27.12,1010.76,2030.94,2471.61,2632.77,2848.84,350.15,347.59,14.68,0000 0000 0000 0000 000000
2015-01-29 11:04:17,0.18,2.62,0.00,21.48,27.04,30.15,4.81,27.41,1010.76,2030.80,2469.60,2631.26,2847.18,349.40,347.14,14.71,0000 0000 0000 0000 000000
2015-01-29 11:09:18,0.20,2.62,0.00,21.49,27.05,30.16,4.88,27.24,1010.76,2030.49,2467.62,2629.74,2845.61,350.25,347.68,14.74,0000 0000 0000 0000 000000
2015-01-29 11:14:19,0.20,2.63,0.00,21.53,27.07,30.20,4.78,27.04,1010.76,2030.45,2465.70,2628.29,2844.02,349.98,347.39,14.77,0000 0000 0000 0000 000000
2015-01-29 11:19:20,0.21,2.63,0.00,21.55,27.07,30.23,4.86,27.48,1010.76,2030.32,2463.75,2626.78,2842.38,350.71,348.14,14.80,0000 0000 0000 0000 000000
2015-01-29 11:24:22,0.20,2.64,0.00,21.57,27.09,30.22,4.78,27.14,1010.78,2030.11,2461.73,2625.29,2840.68,350.04,347.45,14.83,0000 0000 0000 0000 000000
2015-01-29 11:29:23,0.24,2.65,0.00,21.57,27.10,30.24,4.71,27.24,1010.80,2030.07,2459.75,2623.71,2839.11,349.52,346.69,14.86,0000 0000 0000 0000 000000
2015-01-29 11:34:24,0.21,2.65,0.00,21.56,27.12,30.16,4.78,27.08,1010.77,2030.05,2457.73,2622.42,2837.45,349.82,347.20,14.89,0000 0000 0000 0000 000000
2015-01-29 11:39:26,0.25,2.66,0.00,21.61,27.12,30.24,4.78,27.24,1010.76,2030.02,2455.66,2620.78,2835.68,349.96,347.32,14.92,0000 0000 0000 0000 000000
2015-01-29 11:44:27,0.20,2.67,0.00,21.61,27.14,30.27,4.82,26.97,1010.76,2030.00,2453.79,2619.30,2834.01,349.57,346.94,14.95,0000 0000 0000 0000 000000
2015-01-29 11:49:29,0.23,2.67,0.00,21.58,27.15,30.23,4.84,27.05,1010.76,2030.00,2451.95,2617.77,2832.38,350.16,347.51,14.97,0000 0000 0000 0000 000000
2015-01-29 11:54:30,0.24,2.68,0.00,21.61,27.17,30.23,4.75,27.01,1010.72,2030.00,2449.87,2616.26,2830.67,350.08,347.30,15.00,0000 0000 0000 0000 000000
2015-01-29 11:59:31,0.26,2.69,0.00,21.56,27.17,30.23,4.79,26.97,1010.68,2030.00,2447.75,2614.61,2828.92,349.70,346.95,15.03,0000 0000 0000 0000 000000
2015-01-29 12:04:32,0.25,2.69,0.00,21.64,27.20,30.26,4.83,27.06,1010.52,2030.00,2445.56,2612.95,2827.16,349.99,347.35,15.06,0000 0000 0000 0000 000000
2015-01-29 12:09:34,0.24,2.70,0.00,21.59,27.20,30.21,4.83,27.07,1010.32,2030.00,2443.37,2611.29,2825.33,349.91,347.16,15.09,0000 0000 0000 0000 000000
2015-01-29 12:14:36,0.25,2.71,0.00,21.62,27.21,30.25,4.77,26.88,1010.44,2029.98,2441.30,2609.61,2823.51,349.48,346.50,15.12,0000 0000 0000 0000 000000
2015-01-29 12:19:37,0.24,2.72,0.00,21.67,27.22,30.27,4.78,26.93,1010.37,2029.97,2439.22,2608.02,2821.76,349.56,346.58,15.15,0000 0000 0000 0000 000000
2015-01-29 12:24:39,0.25,2.72,0.00,21.63,27.24,30.22,4.79,27.07,1010.37,2029.95,2437.13,2606.43,2820.02,349.77,347.04,15.18,0000 0000 0000 0000 000000
2015-01-29 12:29:40,0.24,2.73,0.00,21.66,27.25,30.29,4.84,27.14,1010.29,2029.95,2435.16,2604.80,2818.37,349.96,347.12,15.21,0000 0000 0000 0000 000000
2015-01-29 12:34:41,0.21,2.74,0.00,21.64,27.25,30.24,4.86,26.99,1010.29,2029.81,2433.06,2603.22,2816.63,350.45,347.73,15.24,0000 0000 0000 0000 000000
2015-01-29 12:39:43,0.21,2.74,0.00,21.66,27.27,30.33,4.75,27.21,1010.30,2029.63,2431.04,2601.64,2814.96,349.87,346.86,15.27,0000 0000 0000 0000 000000
2015-01-29 12:44:44,0.22,2.75,0.00,21.65,27.27,30.28,4.83,27.00,1010.28,2029.58,2429.01,2600.06,2813.29,350.11,347.13,15.30,0000 0000 0000 0000 000000
2015-01-29 12:49:45,0.18,2.76,0.00,21.66,27.28,30.33,4.84,27.13,1010.28,2029.35,2427.02,2598.54,2811.66,350.40,347.43,15.33,0000 0000 0000 0000 000000
2015-01-29 12:54:46,0.23,2.76,0.00,21.67,27.30,30.28,4.80,27.01,1010.28,2029.15,2425.04,2596.94,2809.91,349.76,346.84,15.36,0000 0000 0000 0000 000000
2015-01-29 12:59:48,0.22,2.77,0.00,21.70,27.30,30.24,4.88,27.13,1010.27,2029.13,2423.09,2595.49,2808.33,350.40,347.23,15.38,0000 0000 0000 0000 000000